Theta_e
326 327 329 331 334 338 342 345 345 346 346 342 342 343 342 340 339 342 338 335 340 340 336 335 335 332 330 331 331 331 331 331 330 336 333 329 326 326 323 322 319 316 314
325 326 326 328 329 330 331 336 339 344 344 344 342 342 342 341 340 340 338 335 338 340 340 337 333 333 334 331 331 331 330 332 330 332 333 327 324 322 321 319 316 314 312
320 323 325 326 327 327 328 328 330 336 341 342 342 341 341 341 341 341 341 338 338 339 340 339 335 333 333 329 331 330 330 332 332 328 334 328 321 319 317 315 314 312 310
316 317 319 322 324 326 326 327 327 328 330 334 339 340 340 340 340 341 341 342 340 340 340 341 337 333 331 331 331 329 329 330 327 324 330 329 326 318 318 315 311 309 308
315 315 316 317 319 320 322 325 326 327 327 327 332 333 334 335 336 338 340 340 340 338 336 338 337 332 330 330 327 328 328 324 323 322 324 328 325 319 319 316 313 310 308
313 314 314 315 316 317 318 320 319 322 325 326 325 328 330 332 330 330 332 335 334 332 330 328 329 327 327 326 324 327 325 323 323 323 324 324 327 327 324 321 314 309 310
310 311 311 312 314 315 315 316 319 319 319 322 324 325 326 327 323 326 327 327 332 332 329 328 325 325 324 324 322 321 322 324 325 327 326 326 325 326 325 322 319 316 315
309 308 308 308 309 311 313 314 315 317 319 319 319 323 325 326 322 321 325 325 329 332 331 327 325 326 326 323 325 322 322 323 322 324 327 327 327 325 327 323 323 317 312
309 309 309 308 308 308 308 310 313 314 315 317 319 320 320 324 325 321 321 324 327 329 330 327 324 322 324 323 324 321 322 324 323 322 325 326 324 319 325 323 318 316 313
309 308 308 308 308 308 308 308 309 311 314 314 315 318 321 320 319 321 320 321 323 326 329 329 326 326 325 322 325 327 326 327 326 324 322 321 321 319 318 322 322 321 321
307 306 307 307 307 306 306 307 308 309 311 313 314 315 318 320 321 321 320 320 321 322 322 325 326 326 325 323 324 328 328 327 328 326 325 325 326 325 322 322 324 322 322
304 304 304 304 305 305 305 306 306 307 309 312 314 315 315 316 319 320 320 319 319 320 321 324 324 323 321 322 321 326 328 327 328 327 325 325 324 325 324 323 324 324 323
300 300 301 301 301 301 303 303 304 306 307 309 311 312 312 314 313 314 316 317 317 320 321 320 323 323 324 323 322 322 324 325 326 326 325 324 324 323 324 324 323 322 321
298 298 298 298 300 300 301 302 303 304 305 307 309 310 311 311 312 311 310 310 312 312 313 312 315 315 315 316 319 321 321 323 325 326 325 324 323 323 324 324 323 321 319
296 296 296 297 297 298 299 301 301 302 303 305 307 308 309 310 310 310 309 309 308 307 307 308 309 309 310 310 311 316 319 322 324 325 325 324 323 323 322 324 322 319 319
295 295 295 295 296 297 297 298 299 300 300 301 302 302 305 306 305 304 307 307 307 307 308 310 310 312 312 312 312 312 313 318 321 322 323 322 323 322 322 324 324 320 322
294 293 294 295 295 296 296 297 298 299 300 300 300 300 300 301 302 303 303 304 304 305 305 307 309 312 312 313 313 313 313 315 316 319 320 321 321 322 321 322 324 322 320
292 292 293 293 294 294 295 296 296 298 299 299 299 299 299 299 300 300 301 302 303 303 305 308 310 310 311 311 312 312 312 313 314 315 316 318 319 319 320 320 321 323 321
291 291 292 292 292 293 293 294 295 296 297 298 298 299 300 300 300 300 300 300 303 304 305 306 307 309 309 310 311 312 312 312 313 313 314 315 316 317 318 318 319 321 322
290 290 290 291 291 292 292 293 294 295 295 296 298 298 299 300 300 301 300 300 301 302 303 304 307 307 309 309 310 311 312 313 313 314 314 315 315 315 317 318 318 320 321
290 290 290 290 291 291 292 292 293 294 295 295 296 297 299 299 300 300 301 301 301 301 302 303 304 307 307 308 308 310 311 312 313 313 314 315 315 316 316 317 318 318 320
290 290 290 291 291 291 291 292 292 293 294 294 295 296 296 296 298 300 300 300 301 301 302 302 304 305 306 306 306 307 309 310 311 312 312 313 314 315 316 316 317 318 319
290 290 291 291 291 292 292 291 291 292 293 293 294 295 295 295 296 297 298 300 301 301 302 302 303 304 304 305 305 305 306 308 310 310 311 312 313 315 316 317 317 317 320
290 290 291 291 291 291 292 291 293 294 295 294 294 294 295 295 296 296 297 299 299 300 301 301 303 304 305 305 305 305 305 305 307 309 310 312 313 315 316 317 317 317 320
290 290 290 290 291 291 291 292 292 292 292 295 295 294 294 295 295 296 297 297 298 299 301 301 301 302 302 303 304 304 305 305 307 309 310 312 312 313 315 317 317 319 320
290 290 290 290 290 291 291 291 291 291 291 292 293 295 296 296 296 296 297 297 298 298 299 299 301 301 302 302 303 305 306 306 306 307 310 312 312 314 314 315 316 319 318
Wind_Speed
15 15 15 15 15 15 14 15 19 19 19 23 23 24 25 26 26 28 27 25 25 22 20 19 18 15 13 11 10 8 7 6 5 10 5 4 5 4 5 8 6 5 5
14 12 13 13 13 14 15 14 11 15 20 23 25 24 25 27 27 28 30 29 29 27 25 23 22 20 18 14 12 10 8 6 7 3 5 2 4 5 7 8 6 5 4
15 14 13 12 11 12 12 13 13 10 13 18 21 24 26 27 28 30 31 31 30 31 32 30 27 24 21 17 15 11 10 9 8 8 6 5 4 8 9 8 7 6 5
16 15 14 13 12 11 11 11 11 11 11 8 11 17 19 22 25 27 29 29 29 30 32 32 29 27 24 21 18 15 12 11 9 8 7 6 5 7 9 11 8 8 7
18 17 16 15 14 13 12 12 11 11 9 8 8 7 13 15 14 18 22 22 19 24 26 27 16 23 25 26 21 20 17 16 12 10 8 7 7 6 10 9 8 10 8
21 19 18 17 16 15 15 14 13 14 15 12 10 9 8 9 12 17 23 27 17 17 22 17 12 11 14 25 25 24 23 19 14 10 8 5 2 6 7 9 9 8 5
21 22 22 21 20 18 17 16 15 16 15 15 18 17 13 9 5 13 18 28 29 30 31 28 39 36 28 29 28 26 26 22 15 12 8 7 3 5 7 10 11 9 7
23 22 22 22 23 23 22 20 19 18 17 17 17 19 20 20 13 8 12 16 20 27 27 32 45 46 47 41 32 27 25 21 18 15 11 9 7 4 8 9 9 10 8
27 26 25 23 23 23 24 24 24 22 21 21 21 20 21 22 22 17 7 13 17 23 28 34 43 46 50 52 36 30 26 21 20 20 17 14 11 9 10 9 11 12 5
29 30 28 26 26 27 27 27 27 27 27 24 24 22 23 23 26 28 27 13 12 19 22 29 39 43 45 53 37 30 27 25 21 19 21 20 14 12 13 13 9 12 6
27 27 30 31 30 31 30 29 28 29 29 28 25 23 22 24 24 25 26 23 22 14 15 15 26 37 43 46 39 29 27 23 21 20 17 14 10 10 10 15 12 12 11
29 30 29 30 30 30 30 27 27 28 30 26 27 25 23 17 16 20 22 27 20 16 13 16 17 15 18 27 36 24 22 21 21 21 18 15 14 14 11 13 14 11 10
28 28 29 29 27 28 27 26 24 27 29 29 25 28 26 21 19 15 15 21 22 17 14 14 5 14 22 19 19 21 25 21 23 22 19 16 14 14 9 10 12 13 11
29 30 28 27 25 26 29 29 27 24 26 28 28 25 27 21 19 16 17 16 16 14 14 13 15 12 9 10 10 19 17 22 24 23 21 18 14 13 14 12 12 18 15
26 27 27 26 25 25 27 27 27 29 26 26 27 26 24 25 23 21 23 18 18 20 16 16 14 13 10 17 19 13 19 20 23 21 19 17 16 17 18 19 13 15 12
25 23 23 23 23 22 23 25 28 35 34 30 32 31 25 23 16 8 17 20 21 16 15 15 18 19 21 23 21 21 24 22 25 22 22 19 18 19 22 18 17 17 13
24 24 24 24 23 23 21 21 20 23 29 34 35 35 35 35 33 25 15 18 13 18 22 27 27 26 22 24 25 25 25 28 26 23 24 25 26 23 22 21 22 18 14
27 27 26 24 23 23 22 23 22 19 18 21 26 33 35 36 36 37 35 20 24 27 30 31 32 32 29 30 27 27 25 26 27 27 28 27 28 28 27 27 24 22 19
25 22 23 23 23 23 23 22 22 21 22 23 23 24 26 31 34 32 32 30 29 29 28 30 30 31 31 29 28 28 27 27 27 28 28 27 29 30 29 30 28 24 25
23 24 25 23 22 20 20 21 21 22 23 23 22 24 23 23 24 29 29 29 29 30 27 29 28 30 29 28 28 28 27 27 27 28 28 29 29 31 31 31 30 25 25
23 22 22 22 20 21 20 21 21 21 21 21 24 25 22 26 25 26 26 27 29 29 30 30 34 29 29 26 26 28 27 27 27 28 29 29 28 29 31 31 30 30 25
23 21 20 20 20 19 19 19 20 21 22 22 23 24 26 27 26 25 26 28 29 31 32 33 35 33 28 27 30 30 29 31 30 32 29 27 28 29 31 32 31 30 23
22 22 20 19 18 17 17 17 18 20 22 24 23 23 23 26 28 28 29 28 28 30 28 30 32 34 34 32 32 35 36 34 32 31 28 27 27 29 30 30 32 31 26
24 22 21 19 18 19 17 17 17 15 18 21 21 22 23 24 25 27 27 28 29 29 29 32 30 31 32 32 32 33 34 34 38 33 31 27 28 29 31 31 31 27 24
25 24 22 21 20 19 19 18 18 18 17 13 16 19 21 24 25 26 26 27 27 27 26 31 33 32 33 32 32 33 35 37 33 30 29 30 32 29 29 29 28 22 27
26 25 24 23 22 22 20 20 21 20 18 17 15 14 15 22 24 25 26 27 28 28 30 32 29 31 33 32 32 34 34 33 33 30 25 28 30 32 32 32 31 27 32
Wind_Direction
3 8 9 9 1 341 319 261 246 239 231 221 213 213 213 209 206 202 206 207 208 208 209 206 207 208 213 217 223 231 233 248 262 94 110 104 95 120 139 170 173 178 197
353 352 6 11 9 6 3 333 305 255 235 230 224 218 219 218 212 212 214 210 208 208 208 207 208 205 207 211 214 223 228 221 263 226 140 129 128 153 168 180 174 184 195
342 344 347 339 345 352 351 352 355 315 273 244 235 228 224 223 220 218 216 219 220 212 209 207 206 201 201 204 210 209 214 220 222 255 146 167 162 174 166 172 184 186 200
332 332 334 334 334 324 322 328 338 345 341 308 257 238 232 228 228 226 225 223 227 228 227 208 202 201 200 196 201 208 211 210 210 221 176 173 177 180 189 181 179 190 185
319 318 319 318 316 318 322 315 306 310 315 322 295 265 242 242 230 226 228 225 220 247 260 225 206 206 200 196 198 200 195 204 202 212 216 174 188 185 206 200 188 187 204
304 303 305 307 311 308 306 303 304 300 290 285 284 290 263 235 237 235 231 232 228 205 224 298 298 281 253 213 202 199 193 200 212 222 231 253 214 197 202 195 172 169 206
293 293 293 292 292 292 294 299 296 294 295 286 278 270 275 268 256 258 258 254 245 237 223 216 225 244 245 247 212 203 199 198 206 211 240 247 241 217 206 203 202 207 186
285 285 287 288 289 288 287 286 288 287 284 281 275 267 261 260 262 270 239 244 244 245 232 220 211 212 228 237 210 197 202 204 205 209 220 228 223 213 202 211 212 186 176
280 280 283 284 285 287 286 283 280 278 274 277 272 271 265 258 252 248 233 233 240 239 225 225 219 212 208 216 200 197 204 207 214 211 212 218 221 207 192 181 178 181 177
278 278 279 281 281 281 280 279 278 273 268 268 269 269 261 257 249 246 239 223 237 236 238 209 207 202 212 204 193 192 201 204 202 208 215 223 224 226 221 206 204 214 192
290 291 285 280 278 278 277 275 273 269 268 266 262 262 266 262 251 248 243 230 239 233 253 228 209 204 205 202 190 192 200 199 200 207 206 208 208 214 226 215 213 223 218
303 293 288 282 279 279 277 275 270 266 261 258 260 254 253 257 251 245 242 231 225 223 229 225 212 206 203 197 193 192 201 199 199 210 216 210 213 216 218 219 209 204 221
295 293 283 276 274 273 276 265 266 270 261 258 249 245 242 241 242 242 245 234 223 215 206 222 206 211 231 230 195 194 205 204 217 214 219 218 221 229 199 202 202 187 190
293 288 278 277 275 272 267 264 260 253 260 253 249 248 250 234 232 230 220 219 223 223 206 202 200 216 240 239 218 203 207 211 218 220 222 221 215 203 200 204 194 183 181
288 287 285 279 272 268 261 256 254 256 249 263 259 251 246 245 241 223 225 215 225 226 229 224 225 224 224 248 240 211 208 209 212 215 222 228 214 215 216 187 188 187 173
284 283 282 282 279 272 266 265 258 252 258 257 259 265 268 269 287 307 218 222 220 207 212 214 207 209 211 219 213 208 219 223 217 208 213 222 234 222 224 189 186 189 196
291 289 285 274 274 272 265 262 258 259 252 254 255 254 256 255 259 264 264 239 222 215 222 227 227 229 222 222 228 217 219 217 221 226 222 220 225 230 229 213 185 190 204
295 291 285 276 272 268 266 264 256 260 252 248 247 250 252 249 248 248 250 255 242 236 237 234 233 234 230 233 228 233 227 227 220 219 222 223 223 227 226 227 215 194 189
303 292 285 279 273 265 264 262 260 258 251 253 253 248 245 245 245 246 243 236 238 238 238 233 235 232 232 229 231 228 225 223 222 219 218 219 220 222 222 227 221 200 190
305 298 293 283 277 269 261 255 256 254 254 254 249 247 247 234 228 233 231 231 230 233 232 232 231 232 229 226 224 226 221 219 218 218 216 217 217 220 220 219 222 205 190
311 306 301 294 284 275 267 258 255 252 251 250 250 246 243 235 230 228 227 223 223 224 227 228 228 229 227 221 221 226 228 221 214 216 215 217 213 212 222 221 217 219 198
319 311 310 304 300 287 270 260 255 253 252 247 246 245 242 240 243 238 230 228 228 226 225 225 225 229 225 215 216 223 219 220 217 213 219 220 215 216 215 218 218 215 199
328 327 326 322 319 313 302 275 259 252 251 247 243 239 233 231 234 236 236 232 224 224 225 224 224 224 224 223 218 218 220 219 215 222 222 209 221 219 217 216 215 213 192
339 338 335 332 328 325 321 317 308 285 292 248 240 236 235 232 231 231 233 231 230 230 228 226 226 223 221 217 218 216 220 224 224 224 216 213 212 212 219 214 216 212 192
344 343 342 338 333 330 326 323 319 317 311 304 249 241 238 237 235 234 231 229 229 228 225 223 222 223 223 222 223 219 218 219 221 218 211 212 208 214 211 214 219 210 187
349 347 345 341 337 333 329 324 324 322 316 310 297 283 261 239 235 234 231 229 227 225 223 223 220 216 218 222 223 223 217 216 217 215 216 211 204 208 208 218 210 198 175